#timestamp,LO_Frequency,Hit,StdDev 
1524225615.6,286046996.9,N
1524225635.4,286046999.3,N
1524225655.3,286046996.7,N
1524225675.1,286046996.8,N
1524225676.0,286046996.8,N
1524225695.8,286046997.7,N
1524225715.7,286046999.1,N
1524225735.5,286047000.5,N
1524225755.3,286046999.3,N
1524225775.2,286046998.9,N
1524225795.0,286046998.3,N
1524225795.9,286046998.3,N
1524225815.8,286046998.3,N
1524225835.6,286047000.6,N
1524225855.4,286047000.4,N
1524225875.3,286047000.3,N
1524225895.1,286047002.3,N
1524225915.9,286047004.3,N
1524225935.7,286047002.8,N
1524225955.5,286047002.6,N
1524225975.4,286047004.2,N
1524225995.2,286047004.4,N
1524226015.0,286047001.7,N
1524226016.0,286047001.7,N
1524226035.8,286047001.5,N
1524226055.6,286047001.3,N
1524226075.5,286047002.3,N
1524226095.3,286047000.5,N
1524226115.1,286047000.0,N
1524226135.9,286047000.5,N
1524226155.7,286046999.9,N
1524226175.6,286047000.2,N
1524226195.4,286047002.3,N
1524226215.2,286047002.5,N
1524226235.1,286047000.0,N
1524226236.0,286047000.0,N
1524226255.8,286047002.7,N
1524226275.6,286047000.0,N
1524226295.5,286046998.1,N
1524226315.3,286046999.3,N
1524226335.2,286046996.5,N
1524226355.9,286046998.9,N
1524226375.7,286047000.8,N
1524226395.6,286047001.1,N
1524226415.4,286047000.8,N
1524226435.2,286046998.7,N
1524226455.1,286046998.2,N
1524226456.0,286046998.2,N
1524226475.8,286046999.6,N
1524226495.7,286046997.8,N
1524226515.5,286046997.0,N
1524226535.3,286046999.5,N
1524226555.2,286046999.1,N
1524226575.0,286046998.5,N
1524226575.9,286046998.5,N
1524226595.8,286046998.4,N
1524226615.6,286046998.3,N
1524226635.4,286047001.2,N
1524226655.3,286046999.5,N
1524226675.1,286046997.3,N
1524226695.8,286046996.7,N
1524226715.7,286046996.9,N
1524226735.5,286046997.3,N
1524226755.4,286046997.3,N
1524226775.2,286046997.6,N
1524226795.0,286046995.0,Y
1524226795.9,286046995.0,P
1524226815.8,286046994.9,N
1524226835.6,286046997.4,N
1524226855.4,286046999.6,N
1524226875.3,286046997.7,N
1524226895.1,286046999.5,N
1524226915.9,286047001.2,N
1524226935.7,286046996.9,N
1524226955.5,286046996.5,N
1524226975.4,286046996.7,N
1524226995.2,286046997.5,N
1524227015.0,286046997.7,N
1524227015.9,286046997.7,N
1524227035.8,286046996.8,N
1524227055.6,286046994.9,Y
1524227075.5,286046998.7,P
1524227095.3,286046998.5,N
1524227115.1,286046998.4,P
1524227135.9,286046998.2,Y
1524227155.7,286047002.5,P
1524227175.6,286047002.6,N
1524227195.4,286047004.0,N
1524227215.2,286047002.6,N
1524227235.1,286047002.7,N
1524227236.0,286047002.7,N
1524227255.8,286047000.1,N
1524227275.6,286047002.0,N
1524227295.5,286047002.7,N
1524227315.3,286047000.7,N
1524227335.2,286047000.6,N
1524227355.9,286046999.8,N
1524227375.7,286046998.5,N
1524227395.6,286046998.2,N
1524227415.4,286047000.9,N
1524227435.2,286046998.2,N
1524227455.1,286046998.2,N
1524227456.0,286046998.2,N
1524227475.8,286046998.8,N
1524227495.7,286047001.2,N
1524227515.5,286047001.0,N
1524227535.3,286046998.6,N
1524227555.2,286047001.2,N
1524227575.9,286046998.3,N
1524227595.7,286047000.9,N
1524227615.6,286047000.3,N
1524227635.4,286046998.4,N
1524227655.3,286046998.9,N
1524227675.1,286046996.5,N
1524227676.0,286046996.5,N
1524227695.8,286046997.7,N
1524227715.7,286046996.7,N
1524227735.5,286046997.9,N
1524227755.3,286046997.3,N
1524227775.2,286046997.9,N
1524227795.0,286046998.0,N
1524227795.9,286046998.0,N
1524227815.8,286046997.6,N
1524227835.6,286046997.6,N
1524227855.4,286046997.2,N
1524227875.3,286046997.9,N
1524227895.1,286046997.7,N
1524227915.9,286046997.2,N
1524227935.7,286046996.5,N
1524227955.5,286046999.3,N
1524227975.4,286046999.2,N
1524227995.2,286046997.6,N
1524228015.0,286046997.4,N
1524228015.9,286046997.4,N
1524228035.8,286046997.0,N
1524228055.6,286046997.6,N
1524228075.5,286046995.1,Y
1524228095.3,286046996.5,P
1524228115.1,286046996.7,P
1524228135.9,286046999.2,N
1524228155.7,286046996.5,Y
1524228175.6,286047000.1,P
1524228195.4,286046999.8,N
1524228215.2,286047001.9,N
1524228235.1,286047001.7,N
1524228236.0,286047001.7,N
1524228255.8,286047001.6,N
1524228275.7,286046999.7,N
1524228295.5,286047000.5,N
1524228315.3,286047000.2,N
1524228335.2,286046999.8,N
1524228355.0,286046999.7,N
1524228355.9,286046999.7,N
1524228375.8,286047002.5,N
1524228395.6,286047002.5,N
1524228415.4,286047001.8,N
1524228435.3,286047003.9,N
1524228455.1,286047004.1,N
1524228475.8,286047004.3,N
1524228495.7,286047002.1,N
1524228515.5,286047001.7,N
1524228535.4,286047001.6,N
1524228555.2,286047002.6,N
1524228575.0,286047004.0,N
1524228575.9,286047004.0,N
1524228595.8,286047004.4,N
1524228615.6,286047001.9,N
1524228635.4,286047000.3,N
1524228655.3,286047001.9,N
1524228675.1,286047001.5,N
1524228695.9,286047004.0,N
1524228715.7,286047001.6,N
1524228735.5,286047001.3,N
1524228755.4,286047002.3,N
1524228775.2,286047002.3,N
1524228795.0,286047001.9,N
1524228796.0,286047001.9,N
1524228815.8,286047004.0,N
1524228835.6,286047002.0,N
1524228855.5,286047001.3,N
1524228875.3,286047001.4,N
1524228895.2,286047004.0,Y
1524228915.9,286047000.9,P
1524228935.7,286047000.8,N
1524228955.6,286046999.8,N
1524228975.4,286047002.5,N
1524228995.2,286047000.2,N
1524229015.1,286047001.0,N
1524229016.0,286047001.0,N
1524229035.8,286047002.5,N
1524229055.7,286046999.7,N
1524229075.5,286047001.9,N
1524229095.3,286047002.0,N
1524229115.2,286047004.1,Y
1524229135.0,286046999.8,P
1524229135.9,286046999.8,N
1524229155.8,286046999.8,N
1524229175.6,286047000.8,N
1524229195.4,286047000.5,N
